FENGYUN 1C DEB, 30319

Orbit data source: Space-Track

FENGYUN 1C DEB, 30319 is space debris in SSO originally from a launch on Mon, 10 May 1999 UTC launched from the Taiyaun Space Center, China (TSC). Fengyun 1C debris stems from the Chinese weather satellite Fengyun-1C, which was intentionally destroyed by a Chinese anti-satellite missile in 2007. This event dramatically increased the amount of space debris, with thousands of trackable fragments posing hazards to satellites and human spaceflight. The Fengyun 1C debris cloud has become a focal point in discussions about space sustainability and the need for international regulations to prevent the creation of new debris.

Loading next visibility...
FENGYUN 1C DEB details
Identifier
30319, 1999-025AAG
Orbit
SSO
Last TLE update1 day ago
Origin
Flag of CNCASC (CN / PRC)
ManufacturerUnknown
MissionSpacecraft
Bus & MotorUnknown
MassUnknown
Launch date (UTC)
1999-05-10 (26 years ago)
Launch vehicleUnknown
Launch site
Taiyaun Space Center, China (TSC)
Object type
Payload
Rocket body
Debris
Shape & HBRUnknown
Radar Cross SectionSmall (<0.1 m²)

Expand to show TLE details & history

TLE from 1 day ago
0 FENGYUN 1C DEB
1 30319U 99025AAG 24355.58338729  .00243281  00000-0  15615-1 0  9994
2 30319  98.2656  25.7175 0021288 117.8089  33.1186 15.07080494928342
Epoch: 2024-12-20T14:00Z
Definitive object data (Epoch: 2024-12-20T14:00:04.661Z)
Latitude28.65848°
Longitude-89.41989°
Altitude536.431 km
Speed7.604 km/s
True Right ascension14h 00m 59s
True Declination28° 30' 34"
Sunlit
Object was in daylight at TLE epoch
Visualization TLE readout
Latitude34.11607°
Longitude-87.26391°
Altitude535.646 km
Speed7.605 km/s
Apparent Right ascension17h 50m 48s
Apparent Declination-6° 20' 60"
Sunlit
Object is in daylight
Visualization observer readout
Local Sidereal Time12:54:32
Azimuth105.215° ESE
Elevation7.951°
Doppler factor1
Orbital elements
Apogee altitude556.88 km
Perigee altitude527.417 km
Semi-major axis6,920.285 km
Eccentricity0.0021288
Inclination98.2656°
RAAN25.7175°
Arg. of periapsis117.8089°
True anomaly33.25218°
Mean anomaly33.1186°
Eccentric anomaly33.18536°
Mean motion3.77014 °/min
BSTAR0.015615
Orbital period95.49 mins
Loading maneuver chart data...
Loading historical data...
Loading historical data...
Loading historical data...
Loading historical data...
Loading historical data...
Loading historical data...
Loading historical data...

FENGYUN 1C DEB Visibility forecast

Observer location: undefined°, undefined

Span
Click to sort rows by Start time (UTC) header in descending order
Start Az.
Max El. time (UTC)
Max El. Az.
Max El.
End time (UTC)
End Az.
6 mins2024-12-21 15:23:30.753Z2.365° NNE2024-12-21 15:26:30.753Z270.981° WNW40.653°2024-12-21 15:29:30.753Z207.718° SW
5 mins2024-12-22 02:07:30.753Z152.737° SSE2024-12-22 02:09:30.753Z54.529° ENE43.211°2024-12-22 02:12:30.753Z352.728° N
|